sat.trackr.live / text

‹ back to catalog

STARLINK-6379

NORAD 57343 · 2023-099R

PAYLOAD ACTIVE UNKNOWN

§ Identity

Operator
Country
US
Launch date
2023-07-16
Launch site
AFETR
Launch vehicle
Mass (kg)
RCS (m²)

Purposes: comms

External: N2YO · Heavens-Above · Gunter

§ Orbital elements

Epoch: 2026-05-25T03:09:27.410400Z

Period
94.27 min
Inclination
43.0004°
Eccentricity
0.0000505
Mean motion
15.27573144 rev/d
Perigee alt
482.7 km
Apogee alt
483.4 km
Semi-major
6,861.2 km
B*
3.9657e-5
RAAN
180.9991°
Arg perigee
266.9167°
Mean anomaly
93.1627°
Rev number
15,776

§ Raw data

STARLINK-63791 57343U 23099R   26145.13156725  .00000829  00000+0  39657-4 0  99952 57343  43.0004 180.9991 0000505 266.9167  93.1627 15.27573144157762

JSON: /api/v1/satellites/57343 · /tle

For live sub-satellite position, see the globe view (requires WebGL).

§ Visibility from observer

Set your observer location to see the next 7 days of passes ≥ 10°. The values pass through the URL so the page stays shareable.

No JS? Fill the form by hand. The geolocation button needs JavaScript.